Lid_Strength_Index
-0 0 -0 3 10 9 13 12 8 9 9 6 5 7 7 7 8 10 1 0 -0 -0 -1 -1 -1 -1 -1 -1 -1 -1 -1 -1 -1 -1 -2 -1 -1 -2 -1 -1 -1 -2 -2 -2 -2 -2 -1 -2 -1
1 2 2 5 11 14 13 9 10 8 7 5 5 6 7 8 5 4 3 0 -1 -1 -1 -1 -2 -1 -1 -1 -1 -1 -1 -1 -2 -2 -2 -2 -2 -2 -2 -1 -1 -2 -2 -2 -2 -2 -2 -2 -1
1 1 5 8 11 15 13 10 9 7 6 6 7 5 6 7 4 3 0 -0 -1 -1 -1 -1 -1 -1 -1 -1 -1 -1 -1 -1 -1 -1 -2 -2 -2 -2 -1 -2 -2 -2 -1 -2 -1 -2 -1 -2 -2
2 3 5 11 13 11 11 9 8 7 6 5 6 8 5 2 3 1 -0 -0 -0 -0 -1 -1 -2 -2 -1 -1 -1 -2 -1 -1 -1 -1 -1 -1 -2 -2 -2 -2 -2 -2 -2 -2 -2 -2 -2 -2 -1
2 5 10 12 13 10 9 8 7 8 7 7 6 8 7 3 1 0 0 -0 0 -0 -1 -1 -2 -2 -2 -1 -2 -2 -2 -1 -1 -2 -2 -1 -1 -1 -2 -2 -2 -2 -1 -2 -2 -2 -2 -2 -2
6 6 13 15 12 10 8 7 7 7 7 6 7 7 7 2 2 1 -0 -0 -1 -0 -1 -1 -2 -1 -2 -2 -1 -2 -2 -1 -2 -2 -2 -2 -1 -1 -2 -2 -2 -2 -2 -2 -2 -2 -2 -2 -2
8 10 13 13 12 11 9 6 8 8 7 7 5 8 6 3 1 0 0 -0 -0 -1 -1 -1 -1 -1 -2 -2 -2 -1 -2 -2 -2 -2 -2 -2 -2 -2 -2 -2 -2 -2 -2 -2 -2 -1 -1 -2 -1
6 9 12 12 13 12 8 7 6 7 7 4 4 8 8 3 1 1 0 0 0 -0 -1 -1 -1 -2 -1 -2 -2 -2 -2 -2 -1 -2 -2 -2 -2 -2 -2 -2 -2 -2 -2 -1 -1 -2 -1 -1 -1
4 10 13 12 12 11 7 8 5 4 6 5 4 5 3 2 1 1 1 1 1 0 -0 -1 -1 -1 -1 -1 -1 -1 -2 -1 -1 -1 -1 -1 -1 -1 -2 -2 -2 -2 -2 -2 -1 -1 -1 -1 -1
7 10 11 8 8 9 8 8 7 7 7 7 6 4 2 2 2 3 3 3 2 1 0 -1 -1 -1 -1 -1 -1 -1 -1 -2 -1 -2 -2 -1 -1 -1 -1 -1 -1 -1 -1 -1 -1 -1 -1 -1 -2
7 10 8 8 7 7 8 8 6 7 8 6 6 5 4 3 3 3 2 2 2 1 0 -0 -1 -1 -1 -1 -1 -1 -1 -1 -1 -2 -2 -1 -1 -1 -1 -1 -1 -1 -1 -2 -1 -1 -2 -1 -2
9 7 7 7 7 7 8 7 8 7 6 4 4 4 3 4 3 3 3 2 2 1 1 -0 -1 -1 -1 -1 -1 -1 -1 -1 -1 -1 -1 -1 -1 -1 -1 -1 -1 -2 -2 -2 -2 -2 -2 -1 -1
8 8 7 6 6 7 6 8 7 7 5 4 4 4 4 4 3 2 2 2 1 1 1 0 -1 -1 -1 -1 -1 -1 -1 -1 -1 -1 -1 -2 -1 -1 -1 -1 -2 -2 -2 -2 -1 -1 -1 -1 -1
7 7 7 6 7 6 8 8 7 7 4 5 4 4 4 4 3 2 2 2 1 1 1 0 -0 -1 -1 -1 -1 -1 -1 -1 -1 -1 -1 -2 -1 -1 -1 -1 -1 -1 -1 -1 -2 -1 -1 -1 -1
6 9 8 8 7 8 7 10 10 6 5 5 5 4 4 3 3 3 2 2 1 1 0 0 -0 -1 -1 -1 -1 -1 -1 -1 -1 -1 -2 -1 -2 -1 -1 -1 -1 -1 -2 -2 -2 -2 -1 -1 -1
9 9 12 9 8 7 8 12 8 6 6 6 5 5 4 4 3 2 2 1 1 1 1 0 -0 -0 -1 -1 -1 -1 -1 -1 -1 -2 -2 -2 -1 -1 -2 -1 -1 -1 -2 -2 -1 -1 -1 -1 -1
10 12 12 11 7 8 8 11 8 6 7 7 6 5 5 4 3 2 1 1 1 1 1 0 -0 -0 -0 -1 -1 -1 -1 -1 -1 -1 -2 -1 -1 -2 -2 -1 -1 -2 -1 -1 -1 -1 -1 -0 -0
11 12 12 12 9 9 10 10 8 7 7 7 6 5 5 4 4 2 2 1 1 0 0 0 -0 -0 -1 -1 -1 -1 -1 -1 -1 -1 -2 -1 -2 -2 -2 -1 -1 -1 -1 -0 -0 -0 -1 -1 -0
9 10 11 10 9 10 10 10 9 7 7 7 7 6 5 4 3 2 2 1 1 1 1 1 0 -0 -0 0 1 0 1 0 -0 -1 -1 -1 -1 -2 -2 -1 -1 -1 -1 -1 -1 -0 -0 -0 -1
8 10 11 10 9 9 10 11 9 8 7 7 7 6 5 5 4 3 2 2 1 1 1 0 0 -0 -0 -0 -0 -0 0 -0 -1 -1 -1 -1 -1 -1 -2 -1 -1 -1 -1 -0 -0 -0 0 -0 -1
9 10 11 11 10 9 10 12 11 8 7 7 6 6 5 5 4 4 3 2 2 2 1 1 0 0 -0 -0 -0 -0 -0 -0 0 0 -0 -1 -1 -1 -1 -1 -1 -1 -1 -0 -0 -1 0 1 -0
10 8 9 11 12 13 10 14 12 10 9 8 7 6 5 5 4 3 3 3 2 1 1 0 0 0 -0 -1 0 0 1 1 1 0 -0 -0 -1 -1 -1 -2 -1 -1 -1 -1 -1 -1 -0 0 1
9 8 9 10 11 12 12 14 12 10 11 9 7 6 5 4 4 4 3 2 2 1 1 0 0 -0 -0 -0 -0 0 1 0 -0 0 -0 -0 -1 -1 -1 -1 -1 -1 -1 -1 -1 -1 -1 -0 0
7 9 9 10 12 13 12 13 11 12 10 9 7 6 5 4 4 3 2 2 2 1 1 1 1 0 -0 -0 -0 0 1 1 1 1 1 0 -0 -0 -1 -1 -1 -1 -1 -1 -1 -1 -0 -1 -0
8 10 14 15 14 14 11 13 11 9 8 8 7 6 5 4 4 4 3 3 2 2 1 1 1 1 0 0 0 0 0 0 0 0 1 1 1 0 -0 -1 -1 -1 -1 -1 -1 -1 -1 -1 -0
9 9 11 15 14 12 12 14 10 8 7 6 6 5 5 4 4 4 3 3 2 2 1 1 1 1 1 0 0 0 -0 0 0 0 0 0 0 0 -1 -1 -1 -1 -1 -1 -1 -1 -1 -1 -0
9 11 9 11 12 13 12 11 8 7 8 7 6 6 6 5 4 4 3 3 2 2 2 1 1 1 1 1 0 0 -0 0 0 -0 -0 -0 -0 -0 -1 -1 -1 -1 -1 -1 -1 -0 -0 -1 -1
7 6 11 10 15 15 13 13 11 10 9 7 7 6 6 5 4 3 3 3 2 2 1 1 1 1 1 0 0 0 0 -0 -0 -0 -0 -0 -0 -1 -1 -1 -1 -1 -1 -1 -1 -0 -1 -0 -0
8 9 10 10 11 13 14 11 8 8 8 8 7 6 6 5 4 4 3 3 2 2 1 1 1 1 1 1 0 0 0 -0 -0 0 -0 -0 -1 -1 -0 -1 -1 -0 -0 -1 -0 -0 -0 0 -0
8 9 9 11 14 12 12 11 7 7 7 7 7 6 5 5 4 3 3 3 3 2 2 2 1 1 1 1 0 0 0 0 0 0 -0 -1 -0 -1 -1 -1 -0 -0 -0 -1 -0 0 -0 0 0